Date String (YYYY-MM-DD hh:mm:ss) UTC,Instrument flags,Ambient pressure (hPa),Sample flow (lpm),Bypass flow (lpm),Sample temperature (°C),Ambient temperature (°C),ASC tube jacket temperature (°C),LED temperature (°C),Box temperature (°C),Sample RH (%),Span deviation,Mass concentration (μg/m³),Mass concentration (μg/m³),Mass concentration (μg/m³)
DateTimeUTC,F1_M11,P_M11,Q1_M11,Q2_M11,T1_M11,T2_M11,T3_M11,T4_M11,T5_M11,U1_M11,ZSPAN_M11,X0_M11,X2_M11,X1_M11
2022-03-10 20:00:00,,0822.5,5.00,0.00,22.0,21.3,00.0,31.0,23.7,05.6,0000.0,0009.86,0007.30,0006.94
2022-03-10 20:01:00,,0822.5,4.99,0.00,22.0,21.2,00.0,31.0,23.6,05.6,0000.0,0009.92,0007.33,0006.96
2022-03-10 20:02:00,,0822.5,5.00,0.00,21.9,21.1,00.0,31.0,23.6,05.6,0000.0,0009.96,0007.35,0006.98
2022-03-10 20:03:00,,0822.5,5.01,0.00,21.9,21.1,00.0,31.0,23.6,05.6,0000.0,0009.94,0007.34,0006.98
2022-03-10 20:04:00,,0822.4,4.99,0.00,21.9,21.1,00.0,31.0,23.6,05.7,0000.0,0009.95,0007.35,0007.00
2022-03-10 20:05:00,,0822.4,4.99,0.00,21.9,21.2,00.0,31.0,23.7,05.7,0000.0,0010.01,0007.38,0007.02
2022-03-10 20:06:00,,0822.4,5.01,0.00,22.0,21.3,00.0,31.0,23.8,05.6,0000.0,0010.01,0007.40,0007.03
2022-03-10 20:07:00,,0822.4,5.00,0.00,22.0,21.3,00.0,31.0,23.8,05.6,0000.0,0010.03,0007.42,0007.05
2022-03-10 20:08:00,,0822.4,4.99,0.00,22.0,21.3,00.0,31.0,23.8,05.7,0000.0,0010.07,0007.43,0007.05
2022-03-10 20:09:00,,0822.4,5.01,0.00,21.9,21.2,00.0,31.0,23.7,05.7,0000.0,0010.06,0007.40,0007.04
2022-03-10 20:10:00,,0822.5,5.01,0.00,21.9,21.1,00.0,31.0,23.6,05.7,0000.0,0009.75,0007.40,0007.05
2022-03-10 20:11:00,,0822.5,4.99,0.00,21.9,21.1,00.0,30.9,23.5,05.9,0000.0,0009.73,0007.39,0007.04
2022-03-10 20:12:00,,0822.5,4.99,0.00,21.9,21.1,00.0,30.9,23.6,06.0,0000.0,0009.65,0007.37,0007.04
2022-03-10 20:13:00,,0822.5,5.02,0.00,21.9,21.1,00.0,30.9,23.6,05.8,0000.0,0009.65,0007.38,0007.05
2022-03-10 20:14:00,,0822.5,4.99,0.00,21.9,21.1,00.0,30.9,23.6,05.8,0000.0,0009.72,0007.42,0007.07
2022-03-10 20:15:00,,0822.4,4.99,0.00,21.9,21.2,00.0,30.9,23.6,05.8,0000.0,0009.77,0007.46,0007.08
2022-03-10 20:16:00,,0822.4,4.99,0.00,21.9,21.2,00.0,30.9,23.6,06.3,0000.0,0009.77,0007.49,0007.11
2022-03-10 20:17:00,,0822.5,4.99,0.00,21.9,21.2,00.0,30.9,23.6,06.4,0000.0,0009.74,0007.47,0007.10
2022-03-10 20:18:00,,0822.4,5.02,0.00,21.9,21.2,00.0,30.9,23.6,06.1,0000.0,0009.70,0007.45,0007.09
2022-03-10 20:19:00,,0822.4,5.01,0.00,21.9,21.2,00.0,30.9,23.6,05.8,0000.0,0009.69,0007.46,0007.10
2022-03-10 20:20:00,,0822.4,4.99,0.00,21.9,21.1,00.0,30.9,23.6,05.8,0000.0,0009.65,0007.47,0007.11
2022-03-10 20:21:00,,0822.4,5.00,0.00,21.9,21.2,00.0,30.9,23.6,05.8,0000.0,0009.72,0007.50,0007.13
2022-03-10 20:22:00,,0822.5,5.00,0.00,21.8,21.1,00.0,30.9,23.6,06.0,0000.0,0009.82,0007.58,0007.19
2022-03-10 20:23:00,,0822.5,5.02,0.00,21.8,21.1,00.0,30.9,23.5,05.9,0000.0,0009.96,0007.66,0007.24
2022-03-10 20:24:00,,0822.4,5.00,0.00,21.8,21.2,00.0,30.9,23.6,06.1,0000.0,0010.06,0007.72,0007.28
2022-03-10 20:25:00,,0822.4,4.99,0.00,21.8,21.2,00.0,30.9,23.6,06.0,0000.0,0010.93,0007.77,0007.33
2022-03-10 20:26:00,,0822.4,5.00,0.00,21.9,21.2,00.0,30.9,23.6,05.9,0000.0,0011.05,0007.81,0007.39
2022-03-10 20:27:00,,0822.4,5.00,0.00,21.9,21.2,00.0,30.9,23.6,05.9,0000.0,0011.07,0007.85,0007.45
2022-03-10 20:28:00,,0822.4,5.01,0.00,21.8,21.2,00.0,30.9,23.5,05.8,0001.2,0011.13,0007.90,0007.50
2022-03-10 20:29:00,,0822.4,5.00,0.00,21.9,21.4,00.0,30.9,23.6,06.2,0003.1,0011.16,0007.94,0007.55
2022-03-10 20:30:00,,0822.4,5.00,0.00,22.0,22.1,00.0,30.9,23.8,05.8,0002.9,0011.26,0008.01,0007.61
2022-03-10 20:31:00,,0822.4,5.00,0.00,22.1,22.9,00.0,31.0,24.1,05.7,0002.2,0011.31,0008.06,0007.66
2022-03-10 20:32:00,,0822.3,4.99,0.00,22.2,22.8,00.0,31.0,24.2,05.6,0000.9,0011.26,0008.07,0007.70
2022-03-10 20:33:00,,0822.3,5.01,0.00,22.2,22.5,00.0,31.0,24.1,05.6,0001.3,0011.43,0008.06,0007.70
2022-03-10 20:34:00,,0822.3,5.00,0.00,22.2,22.3,00.0,31.0,24.0,05.6,0000.7,0011.65,0008.09,0007.73
2022-03-10 20:35:00,,0822.3,5.00,0.00,22.1,22.0,00.0,31.0,23.9,05.7,0000.0,0011.68,0008.11,0007.77
2022-03-10 20:36:00,,0822.4,4.99,0.00,22.1,21.9,00.0,31.0,23.8,05.6,0000.0,0010.87,0008.14,0007.79
2022-03-10 20:37:00,,0822.3,5.02,0.00,22.1,21.7,00.0,31.0,23.7,05.9,0000.0,0010.89,0008.15,0007.79
2022-03-10 20:38:00,,0822.3,4.99,0.00,22.0,21.6,00.0,31.0,23.7,06.1,0000.0,0010.98,0008.16,0007.79
2022-03-10 20:39:00,,0822.3,5.00,0.00,22.0,21.5,00.0,31.0,23.6,06.1,0000.0,0011.09,0008.22,0007.83
2022-03-10 20:40:00,,0822.2,5.01,0.00,22.0,21.5,00.0,31.0,23.6,05.8,0000.0,0011.23,0008.27,0007.85
2022-03-10 20:41:00,,0822.3,4.99,0.00,21.9,21.4,00.0,31.0,23.6,05.9,0000.0,0011.26,0008.28,0007.87
2022-03-10 20:42:00,,0822.3,5.00,0.00,21.9,21.4,00.0,31.0,23.6,05.9,0000.0,0011.29,0008.28,0007.89
2022-03-10 20:43:00,,0822.3,5.00,0.00,21.9,21.4,00.0,31.0,23.7,05.9,0000.0,0011.36,0008.32,0007.91
2022-03-10 20:44:00,,0822.2,5.01,0.00,21.9,21.4,00.0,31.0,23.7,05.9,0000.0,0011.16,0008.34,0007.94
2022-03-10 20:45:00,,0822.2,5.00,0.00,22.0,21.4,00.0,31.0,23.7,06.1,0000.0,0010.98,0008.35,0007.94
2022-03-10 20:46:00,,0822.2,5.00,0.00,22.0,21.4,00.0,31.0,23.7,06.0,0000.0,0011.34,0008.35,0007.94
2022-03-10 20:47:00,,0822.2,4.99,0.00,22.0,21.3,00.0,31.0,23.7,05.8,0000.0,0011.60,0008.34,0007.94
2022-03-10 20:48:00,,0822.3,5.01,0.00,22.0,21.4,00.0,31.0,23.8,06.0,0001.2,0011.56,0008.34,0007.96
2022-03-10 20:49:00,,0822.3,5.01,0.00,22.0,21.4,00.0,31.0,23.8,06.1,0001.7,0011.56,0008.35,0007.96
2022-03-10 20:50:00,,0822.3,5.00,0.00,22.0,21.4,00.0,31.0,23.8,06.0,0002.1,0011.64,0008.36,0007.96
2022-03-10 20:51:00,,0822.3,4.99,0.00,22.0,21.5,00.0,31.0,23.8,05.9,0001.2,0011.61,0008.36,0007.97
2022-03-10 20:52:00,,0822.2,4.99,0.00,22.0,21.5,00.0,31.0,23.9,06.0,0001.1,0011.59,0008.36,0007.96
2022-03-10 20:53:00,,0822.3,5.00,0.00,22.0,21.5,00.0,31.0,23.8,06.3,0001.2,0011.59,0008.37,0007.95
2022-03-10 20:54:00,,0822.3,5.01,0.00,22.0,21.5,00.0,31.0,23.8,06.4,0001.3,0011.55,0008.32,0007.91
2022-03-10 20:55:00,,0822.3,4.99,0.00,22.0,21.5,00.0,31.0,23.7,06.4,0000.8,0011.54,0008.28,0007.87
2022-03-10 20:56:00,,0822.2,4.99,0.00,22.0,21.4,00.0,31.0,23.7,06.1,0000.2,0011.56,0008.25,0007.85
2022-03-10 20:57:00,,0822.3,5.00,0.00,22.0,21.4,00.0,31.0,23.7,06.1,-000.2,0011.20,0008.21,0007.83
2022-03-10 20:58:00,,0822.2,5.00,0.00,22.0,21.4,00.0,31.0,23.7,06.2,-000.1,0010.91,0008.19,0007.80
2022-03-10 20:59:00,,0822.2,5.00,0.00,22.0,21.4,00.0,31.0,23.7,06.0,-000.2,0010.93,0008.17,0007.78
